Regional Weather Roundup
Issued by NWS Upton, NY

Current Version | Previous Version | Text Only | Print | Product List | Glossary Off
Versions: 1 2 3 4 5 6 7 8 9 10 11 12 13 14 15 16 17 18 19 20 21 22 23 24 25 26 27

000
ASUS41 KOKX 110408
RWROKX

REGIONAL WEATHER ROUNDUP
NATIONAL WEATHER SERVICE NEW YORK NY
1100 PM EST SAT DEC 10 2016

NOTE: "FAIR" INDICATES FEW OR NO CLOUDS BELOW 12,000 FEET WITH NO
SIGNIFICANT WEATHER AND/OR OBSTRUCTIONS TO VISIBILITY.

NYZ071-072-176-178-NJZ106-104-110500-
NEW YORK CITY METRO AREA

CITY           SKY/WX    TMP DP  RH WIND       PRES   REMARKS
Central Park   CLEAR     30  17  58 MISG      30.48R
Wall St Helipt CLEAR     32  19  58 W5        30.48R WCI  27
Bronx Bot Gard NOT AVBL
LaGuardia APRT PTCLDY    33  18  53 NW16      30.47R WCI  23
Kennedy INTL   PTCLDY    32  15  49 W10       30.48R WCI  24
Breezy Point     N/A    N/A N/A N/A NW8         N/A
Newark/Liberty CLEAR     29  16  58 W5        30.47R WCI  24
Teterboro      CLEAR     28  17  63 VRB3      30.47R
$$

NYZ177-179-078>081-110500-
LONG ISLAND NEW YORK

CITY           SKY/WX    TMP DP  RH WIND       PRES   REMARKS
Jones Beach      N/A     32 N/A N/A NW10        N/A  WCI  24
Matinecock PT    N/A     34 N/A N/A W17         N/A  WCI  23
Farmingdale    CLEAR     29  18  63 W6        30.46R WCI  23
MacArthur/ISP  PTCLDY    25  19  78 W7        30.45R WCI  17
Shirley        CLEAR     24  18  77 CALM      30.46R
Westhampton    NOT AVBL
Southampton    NOT AVBL
Bridgehampton  NOT AVBL
East Hampton     N/A     18  13  81 CALM      30.43S
Montauk          N/A     32  11  41 NW8       30.45R WCI  25
$$

NYZ052-065-067-110500-
HUDSON VALLEY

CITY           SKY/WX    TMP DP  RH WIND       PRES   REMARKS
White Plains   CLEAR     27  19  72 W6        30.43R WCI  20
Newburgh       CLEAR     21  21 100 CALM      30.43R
Montgomery     CLEAR     20  17  88 W3        30.42R
Poughkeepsie   CLEAR     19  15  84 CALM      30.43R
Albany         PTCLDY    16  10  77 S3        30.42R
$$

NJZ001-105-106-008-010-013-015-019>022-104-110500-
NEW JERSEY

CITY           SKY/WX    TMP DP  RH WIND       PRES   REMARKS
Newark/Liberty CLEAR     29  16  58 W5        30.47R WCI  24
Teterboro      CLEAR     28  17  63 VRB3      30.47R
Caldwell       CLEAR     25  16  68 CALM      30.47R
Somerville     CLEAR     21  14  74 CALM      30.46R
Linden           N/A     27  16  63 W7        30.48R WCI  20
Sussex         CLEAR     18  16  92 SW3       30.43R
Andover          N/A     21  17  84 CALM      30.44R
Trenton        CLEAR     28  15  58 NW6       30.48R WCI  22
Millville      CLEAR     21  17  84 W5        30.51R WCI  15
Atlantic City  CLEAR     24  14  65 NW7       30.50R WCI  16
Wrightstown    CLEAR     26  15  64 W3        30.46R
Toms River     CLEAR     21  16  81 W3        30.50R
Belmar         CLEAR     25  16  68 W5        30.49R WCI  19
$$

PAZ047>061-062-071-110500-
EASTERN PENNSYLVANIA

CITY           SKY/WX    TMP DP  RH WIND       PRES   REMARKS
Philadelphia   CLEAR     27  15  61 W5        30.51R WCI  22
Allentown      CLEAR     23  14  68 SW3       30.46R
Scranton       MOCLDY    22  16  78 S3        30.41R
$$

CTZ002-004>006-009-010-012-RIZ004-006-007-MAZ004-011-015-110500-
SOUTHERN NEW ENGLAND
 IN CT

CITY           SKY/WX    TMP DP  RH WIND       PRES   REMARKS
Bradley INTL   CLEAR     14   8  77 NW3       30.43R
Hartford       CLEAR     20  16  84 CALM      30.44R
Danbury        CLEAR     17  14  88 SW3       30.43R
Wtrbury/Oxford CLEAR     19  10  68 CALM      30.41R
Bridgeport     CLEAR     28  18  66 W5        30.45R WCI  23
Meriden        CLEAR     16  11  80 CALM      30.44R
New Haven      CLEAR     20  13  74 CALM      30.44R
Chester          N/A     23  10  58 CALM      30.41R
Groton         CLEAR     22  14  71 NE3       30.44R
Wilimantic     CLEAR     17  12  80 CALM      30.44R

 IN RI

CITY           SKY/WX    TMP DP  RH WIND       PRES   REMARKS
Providence     CLEAR     19   9  65 CALM      30.44R
Block Island   CLEAR     30  13  49 NW7G16    30.44R WCI  23
Westerly       CLEAR     20  10  65 CALM      30.45R
 IN MA

CITY           SKY/WX    TMP DP  RH WIND       PRES   REMARKS
Boston         CLEAR     22   5  48 NW5       30.44R WCI  16
Worcester      CLEAR     18   7  62 W8        30.35R WCI   8
Westfield      CLEAR     11  10  96 CALM      30.42R
Provincetown   MOCLDY    27  13  55 NW14      30.43R WCI  16
Nantucket      CLEAR     27   9  46 NW12      30.42R WCI  17
$$

ANZ330-335-338-340-345-350-353-355-110500-
COASTAL MARINE OBSERVATIONS


STATION/POSITION TIME  SKY/WX   TEMP    WIND        PRES    VSBY  WAVE
                                AIR SEA DIR/SP/G                  HT/PER
                 (UTC)          (F)     (DEG/KT/KT) (MB)    (MI)  (FT/S)
NY HARB ENTRANCE 0250            35 52  290/ 16/ 19 1031.0          3/ 4
20 S FIRE ISLAND 0250            36 52  320/ 14/ 16 1030.3          4/ 5
GREAT SOUTH BAY  0315            32 38                N/A
23 SSW MONTAUK P 0250            36 54  300/ 14/ 17 1030.4          3/ 5
15 E BARNEGAT LI 0330               50                N/A           3/ 4
HUDSON CANYON    0250            40 55              1030.2          5/ 5
KINGS POINT      0336            32 44              1031.2
EXECUTION ROCKS  0345            33     260/ 12/ 14   N/A
CENTRAL LI SOUND 0345            33 49  320/  4/  8   N/A           2/ 4
EASTERN LI SOUND NOT AVBL
ROBBINS REEF     0336            31     280/ 12/ 13 1031.9
$$


>>>>>>>>>>>>>>>>>>>>>>>>>>>> KEY <<<<<<<<<<<<<<<<<<<<<<<<<<<
>                                                          <
>     SKY/WX - Sky Condition/Present Weather               <
>     TMP    - Temperature in Fahrenheit                   <
>     DP     - Dew Point in Fahrenheit                     <
>     RH     - Relative Humidity in Percent                <
>     WIND   - Direction (from) and Speed in MPH           <
>     PRES   - Mean Sea Level Pressure (inches of Hg)      <
>     WCI    - Wind Chill Index                            <
>     VSB    - VISIBILITY IN MILES                         <
>     HX     - HEAT INDEX                                  <
>     TC     - TEMPERATURE IN CELSIUS                      <
>     VRB    - VARIABLE WIND DIRECTION                     <
>                                                          <
>>>>>>>>>>>>>>>>>>>>>>>>>>>> KEY <<<<<<<<<<<<<<<<<<<<<<<<<<<




USA.gov is the U.S. government's official web portal to all federal, state and local government web resources and services.